Wind_Speed
20 20 21 21 21 21 21 21 21 22 22 21 21 22 22 23 23 23 23 23 23 22 22 22 22 22 22 22 22 23 23 23 22 22 23 24 23 24 24 24 24 24 24
22 22 22 22 22 22 22 22 23 23 23 23 23 23 24 24 24 24 24 24 24 23 23 23 23 24 24 24 24 24 24 24 24 24 24 24 25 25 25 25 25 25 25
24 24 24 23 23 23 24 24 24 24 24 24 24 24 24 24 24 24 25 25 25 25 25 24 24 25 25 26 26 26 25 25 25 25 25 25 25 26 26 26 26 25 25
26 26 25 25 25 24 24 24 25 25 26 25 25 25 25 25 25 26 26 26 26 26 26 26 26 26 26 26 27 27 27 27 27 26 26 26 26 26 26 26 26 26 26
27 28 27 27 26 26 25 25 25 26 26 26 26 26 26 26 27 27 27 27 27 26 26 26 27 27 27 27 27 27 27 28 28 28 27 27 26 26 26 26 26 26 26
29 29 29 27 27 27 27 27 27 27 27 27 28 28 28 28 27 27 27 27 26 26 26 26 26 27 27 27 27 27 27 28 28 27 27 27 27 27 27 27 26 26 25
30 30 29 28 28 28 27 28 28 28 28 28 29 29 29 29 29 28 28 28 27 27 27 27 27 27 27 27 27 26 26 26 27 27 27 27 27 27 27 27 27 26 26
30 30 29 28 28 28 28 28 29 29 29 29 29 30 30 29 29 29 29 29 28 28 27 27 27 26 27 27 26 26 26 26 27 27 27 27 27 27 28 28 27 27 26
28 28 28 28 28 28 28 28 28 29 29 29 29 29 30 30 30 30 30 30 29 28 27 27 27 27 27 27 27 26 26 26 27 27 27 27 27 28 28 27 27 27 26
28 28 28 28 28 28 28 28 28 29 28 28 29 29 29 30 30 30 30 31 30 29 28 28 28 27 27 27 27 27 27 26 27 27 28 28 28 28 28 27 27 26 25
29 29 28 28 28 28 28 27 28 28 29 29 29 29 29 29 30 30 30 30 29 29 28 28 28 28 27 27 27 27 27 27 27 27 28 28 28 27 27 28 27 26 26
29 29 29 29 29 29 29 28 29 29 29 29 29 29 28 28 29 29 29 29 29 28 28 28 28 28 27 28 28 27 27 27 28 28 28 28 28 27 27 27 27 26 26
30 30 29 30 30 30 30 29 29 30 29 29 29 28 27 28 28 29 29 29 29 28 28 28 27 28 28 27 27 27 27 28 28 28 28 27 27 27 27 27 27 27 27
30 30 30 30 30 30 30 30 30 30 30 30 29 29 29 29 29 29 29 29 29 29 29 28 28 28 27 27 27 27 27 27 27 27 27 26 26 26 26 26 26 27 27
31 31 31 31 30 30 30 30 30 30 30 30 30 30 30 30 30 30 30 29 29 29 29 28 28 29 28 28 28 27 27 26 26 26 26 27 27 26 25 25 25 26 26
31 31 31 31 31 31 31 30 31 30 30 30 30 30 30 30 29 30 30 30 30 29 29 28 29 28 28 28 28 27 27 27 27 27 26 26 27 26 25 25 25 25 25
31 31 31 31 32 31 31 30 30 30 30 30 31 31 30 30 30 30 30 30 30 30 30 29 29 28 28 28 29 29 28 27 27 27 26 26 26 26 26 26 25 25 24
32 32 31 31 31 32 31 31 31 31 31 30 31 31 31 30 30 30 30 30 30 30 30 30 30 29 28 28 29 28 28 27 27 27 27 27 27 27 26 26 25 25 25
32 32 32 31 31 31 30 31 31 31 31 31 31 30 30 30 30 30 30 30 30 29 30 30 30 29 29 28 28 28 28 28 28 28 28 27 27 27 26 26 25 25 25
31 31 31 31 31 31 30 30 30 30 31 30 30 30 29 30 30 30 30 30 29 29 29 29 29 28 28 28 28 28 28 28 28 29 28 27 26 26 26 25 25 25 25
29 29 30 30 30 30 30 30 30 30 30 30 30 30 30 31 30 30 30 29 29 29 29 29 28 28 28 28 28 28 28 28 28 28 27 26 25 25 25 24 23 24 24
27 27 28 28 28 28 28 29 30 30 29 29 29 30 31 30 30 30 30 29 30 30 29 28 28 28 28 28 28 28 28 28 27 28 28 26 25 25 25 25 25 25 25
27 27 27 27 27 27 28 28 28 28 29 29 29 29 29 29 29 30 30 29 29 29 28 28 28 28 28 28 28 28 28 28 27 27 27 26 26 26 26 26 26 26 25
27 28 28 28 27 27 27 27 27 27 27 28 28 28 28 28 28 29 29 29 29 29 28 28 28 28 28 28 29 28 28 28 27 27 28 27 27 27 27 27 27 27 26
28 28 27 27 27 27 27 26 26 26 26 27 27 27 28 28 28 27 28 28 28 28 28 27 27 28 28 28 28 28 27 27 27 27 28 28 27 27 27 27 27 26 27
28 27 27 27 27 27 26 26 26 25 25 26 26 26 26 27 27 27 27 27 27 27 27 27 27 27 27 27 27 26 26 26 26 26 27 27 27 27 26 26 27 26 27
Wind_Direction
287 286 285 284 282 280 279 280 280 280 279 279 278 277 277 277 278 276 276 277 279 280 279 278 278 278 278 279 279 278 278 279 278 277 277 278 278 277 276 275 275 274 273
285 286 284 284 282 280 279 279 280 280 279 278 278 278 278 278 278 277 277 277 277 278 279 279 279 278 278 278 278 278 278 278 278 278 278 278 277 277 276 275 275 275 274
283 285 285 284 282 280 278 278 278 279 279 279 279 279 278 278 279 278 278 278 277 277 278 277 278 279 278 277 277 278 278 278 278 278 278 277 277 277 276 275 275 275 275
283 283 284 284 282 278 275 276 276 277 279 279 279 279 279 279 279 279 279 280 279 278 278 278 278 278 278 278 278 278 278 278 278 279 278 278 277 278 277 276 275 274 274
284 284 283 282 281 278 276 275 275 277 278 278 279 279 280 280 279 279 279 279 279 279 279 279 278 278 278 279 279 279 278 278 279 279 278 278 277 277 276 276 275 275 275
284 284 282 281 280 278 276 276 275 276 277 278 278 279 280 279 279 279 279 278 279 279 281 280 280 279 279 279 279 278 278 279 279 279 279 278 278 277 276 275 275 276 275
284 282 282 280 279 278 277 276 276 276 276 277 278 279 279 279 278 278 278 277 278 278 280 280 280 280 279 278 279 279 280 280 280 280 279 278 277 277 277 275 275 275 275
283 282 280 278 278 277 276 277 276 276 277 277 278 279 279 278 279 279 278 277 277 277 278 278 279 279 280 279 280 280 280 280 280 281 281 280 279 278 277 275 273 273 273
283 282 280 278 278 278 278 277 276 276 278 278 278 279 278 278 278 278 278 278 278 277 277 277 278 278 280 280 279 280 280 280 280 281 282 281 280 279 277 275 274 273 272
282 282 281 280 279 279 280 278 277 277 278 280 279 278 279 279 278 278 277 278 277 275 275 276 277 277 279 280 280 280 280 281 281 281 281 281 281 279 276 274 274 272 271
281 282 281 281 280 280 280 279 278 279 279 280 280 279 279 278 278 278 278 277 277 275 274 275 276 277 277 278 279 279 280 280 281 281 281 282 283 280 276 274 273 272 270
281 281 280 280 281 281 281 280 280 279 280 280 280 279 279 278 278 279 278 276 276 275 274 275 275 275 275 277 278 279 279 279 280 281 281 281 281 280 277 276 274 272 269
281 281 280 278 279 279 279 279 280 280 281 282 281 279 279 279 279 279 278 277 277 276 275 274 274 274 275 275 276 278 279 280 280 281 280 280 280 279 279 277 275 272 270
283 281 281 279 278 278 278 279 279 280 280 282 282 280 279 279 279 279 279 278 278 278 276 275 274 274 275 275 276 278 281 281 282 282 280 279 280 280 278 277 276 273 271
284 282 281 280 279 278 277 277 278 279 279 280 280 280 280 279 279 279 278 276 277 279 277 275 274 274 275 275 276 277 280 282 283 283 280 278 278 279 278 277 276 273 271
286 283 282 280 279 277 276 276 277 278 279 279 280 280 280 278 278 279 278 276 276 276 276 275 274 275 274 275 277 278 280 282 283 282 281 279 278 275 275 276 275 274 272
288 285 283 281 279 277 277 276 277 278 279 279 279 279 279 278 278 278 278 277 276 275 274 275 275 275 275 275 276 277 278 280 281 282 281 280 278 276 276 276 276 275 272
289 287 285 282 279 277 277 277 277 279 279 280 280 279 278 278 278 279 278 277 276 275 274 274 274 274 274 275 276 276 277 278 280 281 281 280 280 280 278 278 278 275 273
290 289 288 285 282 279 278 277 276 277 278 279 279 278 277 277 279 279 279 279 277 277 276 274 273 273 273 274 275 276 277 277 278 279 280 279 280 279 279 278 276 274 273
291 291 289 287 284 281 279 278 277 275 275 276 277 276 275 276 277 277 277 278 278 277 276 274 272 272 272 272 273 274 276 277 278 278 277 276 276 276 276 275 274 274 273
292 292 291 289 286 284 282 280 279 276 275 274 275 276 275 275 276 276 276 276 276 277 277 274 272 273 273 272 274 275 274 275 276 275 274 274 274 275 275 272 274 275 276
294 294 294 293 290 287 285 283 281 280 278 277 276 275 274 275 275 276 276 275 275 275 274 273 272 272 272 272 273 275 275 274 273 274 274 272 272 274 275 273 274 276 275
295 295 294 294 293 292 289 286 283 282 280 278 277 277 276 275 274 275 274 273 273 272 271 272 272 271 271 271 272 274 273 272 272 274 273 270 269 270 272 274 274 274 274
295 295 294 294 294 293 291 289 285 283 282 281 279 278 278 278 277 277 275 273 271 270 270 270 270 270 271 272 272 273 272 271 271 271 271 271 270 269 270 273 274 274 274
295 295 295 295 294 294 292 290 288 285 284 283 281 279 278 278 278 278 276 275 275 273 271 270 269 269 269 271 272 272 272 271 270 270 270 270 270 269 270 271 272 273 273
296 296 296 295 294 293 292 291 290 289 287 285 283 283 281 279 278 277 276 275 275 274 271 268 268 268 268 269 270 272 271 270 270 270 269 268 268 268 268 268 270 271 273
Height
5779 5778 5777 5775 5775 5774 5773 5772 5772 5771 5771 5770 5769 5769 5768 5768 5767 5766 5765 5764 5763 5762 5761 5760 5759 5758 5758 5757 5756 5755 5754 5754 5754 5753 5752 5751 5750 5749 5749 5748 5748 5748 5748
5774 5772 5771 5770 5769 5768 5767 5766 5766 5765 5765 5764 5763 5762 5762 5761 5760 5759 5758 5757 5756 5755 5754 5753 5752 5751 5751 5750 5749 5748 5747 5747 5746 5746 5745 5743 5743 5742 5741 5741 5740 5740 5740
5767 5766 5765 5763 5762 5761 5760 5760 5759 5759 5758 5757 5756 5756 5755 5754 5753 5752 5751 5750 5749 5748 5747 5746 5745 5744 5743 5742 5741 5740 5740 5739 5738 5737 5737 5736 5735 5734 5733 5733 5732 5732 5732
5760 5759 5758 5757 5755 5754 5754 5753 5752 5752 5751 5750 5749 5749 5748 5747 5746 5745 5744 5743 5741 5740 5739 5738 5737 5736 5735 5734 5733 5732 5732 5731 5730 5729 5728 5727 5726 5725 5725 5724 5724 5724 5723
5753 5752 5751 5749 5748 5747 5746 5746 5745 5744 5744 5743 5742 5741 5740 5739 5738 5737 5736 5735 5733 5732 5731 5730 5729 5728 5727 5726 5725 5724 5723 5722 5721 5720 5720 5719 5718 5717 5716 5715 5715 5715 5715
5746 5744 5743 5741 5740 5739 5738 5738 5737 5736 5736 5735 5734 5733 5732 5731 5730 5729 5728 5727 5725 5724 5723 5722 5721 5720 5719 5718 5716 5715 5714 5713 5712 5711 5711 5710 5709 5708 5707 5707 5706 5706 5706
5738 5736 5735 5733 5732 5731 5730 5729 5729 5728 5727 5727 5726 5725 5723 5723 5722 5721 5720 5719 5718 5717 5715 5714 5713 5712 5711 5710 5708 5707 5706 5705 5704 5703 5702 5701 5701 5700 5699 5698 5698 5698 5698
5729 5727 5726 5725 5724 5723 5722 5721 5720 5719 5719 5718 5717 5716 5715 5714 5713 5712 5711 5710 5709 5708 5707 5706 5705 5704 5703 5702 5701 5699 5698 5697 5696 5695 5694 5693 5691 5691 5690 5689 5689 5689 5689
5720 5719 5717 5716 5716 5715 5714 5713 5712 5711 5710 5709 5708 5707 5706 5705 5704 5703 5702 5701 5701 5700 5699 5698 5697 5696 5694 5693 5693 5692 5690 5689 5687 5686 5685 5684 5682 5682 5681 5680 5680 5680 5680
5711 5710 5709 5708 5707 5706 5705 5704 5703 5702 5701 5700 5699 5698 5697 5696 5695 5694 5693 5692 5692 5691 5690 5689 5688 5687 5686 5685 5684 5683 5682 5681 5679 5678 5677 5676 5674 5673 5672 5671 5671 5671 5672
5703 5701 5700 5699 5698 5698 5697 5696 5695 5694 5693 5692 5691 5689 5688 5687 5686 5685 5683 5683 5682 5682 5681 5680 5679 5678 5677 5676 5675 5674 5673 5672 5671 5669 5668 5667 5665 5664 5663 5663 5662 5663 5663
5694 5693 5692 5691 5690 5689 5688 5687 5686 5685 5684 5683 5682 5680 5679 5678 5677 5676 5675 5674 5673 5673 5672 5671 5670 5670 5669 5668 5667 5666 5665 5664 5662 5661 5660 5658 5657 5656 5655 5654 5654 5654 5654
5685 5684 5683 5682 5681 5680 5679 5678 5677 5676 5675 5674 5673 5672 5671 5669 5668 5667 5666 5665 5664 5663 5663 5662 5662 5661 5660 5659 5658 5657 5656 5655 5653 5652 5651 5650 5649 5647 5646 5645 5645 5645 5645
5676 5675 5673 5672 5671 5670 5669 5669 5668 5667 5666 5665 5664 5663 5662 5661 5660 5659 5657 5656 5655 5654 5654 5653 5653 5652 5651 5651 5650 5649 5647 5646 5645 5644 5643 5642 5640 5639 5637 5637 5636 5636 5636
5667 5666 5664 5663 5662 5661 5660 5659 5658 5657 5656 5655 5654 5654 5653 5652 5651 5649 5648 5648 5647 5646 5644 5644 5643 5643 5643 5642 5641 5640 5639 5638 5637 5636 5634 5633 5632 5631 5629 5628 5627 5627 5627
5658 5656 5655 5653 5652 5651 5650 5649 5648 5648 5647 5646 5645 5644 5643 5642 5641 5640 5639 5638 5637 5636 5636 5635 5635 5634 5634 5633 5633 5632 5631 5630 5629 5627 5626 5625 5624 5623 5621 5620 5619 5618 5618
5648 5646 5645 5643 5642 5641 5640 5639 5639 5638 5637 5636 5635 5634 5633 5632 5631 5630 5630 5629 5628 5627 5626 5626 5626 5625 5625 5624 5624 5623 5622 5621 5620 5619 5618 5616 5615 5614 5613 5612 5610 5610 5609
5639 5637 5634 5633 5632 5631 5630 5629 5629 5628 5627 5626 5625 5624 5623 5622 5622 5621 5620 5619 5618 5618 5617 5617 5616 5616 5616 5616 5615 5614 5614 5613 5612 5611 5609 5608 5607 5606 5605 5604 5603 5602 5602
5629 5627 5624 5623 5621 5621 5620 5619 5618 5618 5617 5616 5615 5614 5613 5613 5612 5611 5610 5609 5608 5608 5608 5607 5607 5607 5607 5606 5606 5605 5605 5604 5603 5602 5601 5600 5599 5598 5597 5596 5595 5594 5594
5620 5617 5615 5613 5612 5611 5610 5609 5608 5607 5607 5606 5605 5605 5604 5603 5602 5601 5600 5600 5599 5599 5598 5598 5597 5597 5597 5597 5596 5596 5595 5595 5594 5593 5592 5592 5591 5590 5589 5589 5588 5587 5587
5611 5609 5607 5604 5603 5601 5600 5599 5598 5597 5596 5596 5595 5594 5594 5593 5592 5592 5591 5590 5589 5589 5588 5588 5588 5588 5588 5587 5587 5587 5586 5585 5585 5584 5584 5583 5583 5582 5582 5581 5580 5580 5579
5603 5600 5598 5596 5594 5592 5591 5589 5588 5587 5586 5586 5585 5584 5584 5583 5582 5581 5581 5580 5580 5579 5579 5579 5578 5578 5578 5578 5578 5577 5577 5576 5576 5575 5575 5575 5574 5574 5574 5573 5573 5572 5571
5595 5593 5590 5588 5586 5584 5582 5580 5579 5578 5577 5576 5575 5574 5574 5573 5572 5571 5571 5570 5570 5569 5569 5569 5569 5569 5568 5568 5568 5568 5568 5567 5567 5566 5566 5566 5566 5565 5565 5565 5564 5564 5563
5587 5585 5582 5580 5578 5576 5574 5572 5570 5569 5567 5566 5565 5565 5564 5563 5562 5562 5561 5560 5560 5559 5559 5559 5559 5559 5559 5559 5559 5559 5558 5558 5558 5558 5557 5557 5557 5557 5557 5556 5556 5555 5555
5579 5577 5574 5572 5570 5568 5566 5564 5562 5560 5559 5558 5556 5555 5554 5554 5553 5552 5551 5551 5550 5550 5549 5549 5550 5550 5550 5550 5550 5549 5549 5549 5549 5549 5549 5548 5548 5548 5548 5548 5547 5547 5546
5571 5568 5566 5564 5562 5560 5558 5556 5554 5552 5551 5549 5548 5547 5546 5545 5544 5543 5542 5541 5541 5540 5540 5540 5540 5540 5540 5540 5540 5540 5540 5540 5540 5540 5539 5539 5539 5539 5539 5539 5539 5538 5538